Location: Владивосток
(43.1151°N, 131.8856°E)
Time: 01:18:25
(UTC+10:00)

FO-29 - Pass Details

Date: 04 May 2024
Orbit: 801 x 1320 km, 98.6° (Epoch: 19 May)

Event Time Altitude Azimuth Distance (km) Brightness Sun altitude
Rises 04:38:01 0° 5° (N) 4,294 13.5 -14.0°
Reaches altitude 10° 04:41:10 10° 354° (N) 3,346 12.7 -13.6°
Maximum altitude 04:47:22 27° 301° (WNW) 2,308 11.2 -12.7°
Enters shadow 04:52:44 13° 252° (WSW) 3,090 11.5 -11.9°
